SDG094 LIRF-LIEE

Flight info

Callsign SDG094
Flight time 0h 44m
Altitude 31000
Route ESINO DCT ABIDU DCT DEXUL Q125 KOVAS
Aircraft A320/M-SDE3FGHIRWY/LB1

Departure

Time 2026-05-05 17:11
Airport Rome–Fiumicino Leonardo da Vinci International Airport (LIRF)

Arrival

Time 2026-05-05 17:56
Airport Cagliari Elmas Airport (LIEE)
Time Latitude Longitude Altitude Speed Heading
2026-05-05 16:39 41.79725 12.25640 19 ft 0 kts 297°
2026-05-05 17:02 41.79725 12.25641 18 ft 2 kts 297°
2026-05-05 17:03 41.79715 12.25672 20 ft 4 kts 281°
2026-05-05 17:03 41.79715 12.25705 21 ft 4 kts 241°
2026-05-05 17:03 41.79725 12.25720 19 ft 0 kts 205°
2026-05-05 17:03 41.79726 12.25720 23 ft 2 kts 214°
2026-05-05 17:04 41.79736 12.25738 23 ft 2 kts 285°
2026-05-05 17:04 41.79727 12.25755 23 ft 3 kts 352°
2026-05-05 17:04 41.79709 12.25755 22 ft 3 kts 17°
2026-05-05 17:04 41.79695 12.25748 20 ft 0 kts 23°
2026-05-05 17:06 41.79696 12.25749 20 ft 2 kts 23°
2026-05-05 17:06 41.79755 12.25784 20 ft 11 kts 28°
2026-05-05 17:06 41.79820 12.25826 18 ft 10 kts
2026-05-05 17:06 41.79885 12.25831 18 ft 10 kts 20°
2026-05-05 17:07 41.79985 12.25893 20 ft 21 kts 24°
2026-05-05 17:07 41.80119 12.25976 16 ft 23 kts 25°
2026-05-05 17:07 41.80268 12.26068 15 ft 25 kts 25°
2026-05-05 17:07 41.80425 12.26162 13 ft 25 kts 21°
2026-05-05 17:08 41.80532 12.26258 13 ft 18 kts 69°
2026-05-05 17:08 41.80577 12.26418 15 ft 19 kts 70°
2026-05-05 17:08 41.80626 12.26597 13 ft 22 kts 70°
2026-05-05 17:08 41.80682 12.26801 12 ft 25 kts 70°
2026-05-05 17:09 41.80741 12.27008 9 ft 18 kts 60°
2026-05-05 17:09 41.80851 12.27021 8 ft 16 kts 339°
2026-05-05 17:09 41.80946 12.26960 9 ft 14 kts 311°
2026-05-05 17:09 41.80937 12.26847 10 ft 12 kts 249°
2026-05-05 17:10 41.80907 12.26742 9 ft 12 kts 250°
2026-05-05 17:10 41.80894 12.26695 9 ft 0 kts 250°
2026-05-05 17:10 41.80876 12.26627 12 ft 37 kts 250°
2026-05-05 17:11 41.80694 12.25973 16 ft 110 kts 249°
2026-05-05 17:11 41.80355 12.24756 18 ft 166 kts 247°
2026-05-05 17:11 41.79966 12.23308 623 ft 164 kts 243°
2026-05-05 17:11 41.79569 12.21899 1396 ft 159 kts 244°
2026-05-05 17:12 41.79246 12.20445 2017 ft 175 kts 259°
2026-05-05 17:12 41.79189 12.18708 2409 ft 198 kts 263°
2026-05-05 17:12 41.79150 12.16817 3048 ft 204 kts 261°
2026-05-05 17:12 41.78795 12.15007 3850 ft 200 kts 238°
2026-05-05 17:13 41.77916 12.13561 4608 ft 203 kts 221°
2026-05-05 17:13 41.76870 12.12260 5369 ft 205 kts 221°
2026-05-05 17:13 41.75825 12.10969 6234 ft 206 kts 223°
2026-05-05 17:13 41.74765 12.09659 6964 ft 209 kts 223°
2026-05-05 17:14 41.73697 12.08339 7773 ft 208 kts 224°
2026-05-05 17:14 41.72637 12.07026 8600 ft 208 kts 224°
2026-05-05 17:14 41.71561 12.05691 9320 ft 213 kts 222°
2026-05-05 17:14 41.70265 12.04678 10014 ft 220 kts 201°
2026-05-05 17:15 41.68679 12.04345 10434 ft 245 kts 183°
2026-05-05 17:15 41.66890 12.04340 10746 ft 269 kts 182°
2026-05-05 17:15 41.64929 12.04339 11046 ft 294 kts 184°
2026-05-05 17:15 41.62822 12.04115 11306 ft 315 kts 196°
2026-05-05 17:16 41.60782 12.02965 11782 ft 324 kts 214°
2026-05-05 17:16 41.58987 12.01124 12538 ft 327 kts 220°
2026-05-05 17:16 41.57219 11.99244 13314 ft 332 kts 220°
2026-05-05 17:16 41.55377 11.97294 14045 ft 336 kts 220°
2026-05-05 17:17 41.53533 11.95343 14722 ft 340 kts 220°
2026-05-05 17:17 41.51673 11.93377 15420 ft 343 kts 220°
2026-05-05 17:17 41.49797 11.91396 16105 ft 346 kts 220°
2026-05-05 17:17 41.47928 11.89423 16779 ft 349 kts 220°
2026-05-05 17:18 41.46012 11.87406 17464 ft 352 kts 220°
2026-05-05 17:18 41.44078 11.85372 18155 ft 355 kts 220°
2026-05-05 17:18 41.42129 11.83326 18758 ft 358 kts 220°
2026-05-05 17:18 41.40216 11.81186 19332 ft 360 kts 226°
2026-05-05 17:19 41.38618 11.78610 19915 ft 362 kts 237°
2026-05-05 17:19 41.37434 11.75642 20476 ft 365 kts 248°
2026-05-05 17:19 41.36565 11.72452 21048 ft 368 kts 250°
2026-05-05 17:19 41.35700 11.69236 21629 ft 371 kts 250°
2026-05-05 17:20 41.34822 11.65991 22227 ft 374 kts 250°
2026-05-05 17:20 41.33935 11.62727 22814 ft 377 kts 250°
2026-05-05 17:20 41.33039 11.59439 23386 ft 379 kts 250°
2026-05-05 17:20 41.32133 11.56126 23881 ft 382 kts 250°
2026-05-05 17:21 41.31224 11.52804 24367 ft 383 kts 250°
2026-05-05 17:21 41.30311 11.49464 24847 ft 384 kts 250°
2026-05-05 17:21 41.29400 11.46121 25317 ft 385 kts 250°
2026-05-05 17:22 41.27560 11.39402 26213 ft 388 kts 250°
2026-05-05 17:22 41.26632 11.36032 26671 ft 389 kts 250°
2026-05-05 17:22 41.25700 11.32652 27112 ft 390 kts 250°
2026-05-05 17:22 41.24764 11.29264 27559 ft 390 kts 250°
2026-05-05 17:23 41.23828 11.25879 28051 ft 390 kts 250°
2026-05-05 17:23 41.22892 11.22495 28497 ft 390 kts 250°
2026-05-05 17:23 41.21952 11.19104 28854 ft 393 kts 250°
2026-05-05 17:23 41.21005 11.15691 29205 ft 395 kts 250°
2026-05-05 17:24 41.20054 11.12269 29573 ft 396 kts 250°
2026-05-05 17:24 41.19099 11.08834 29946 ft 397 kts 250°
2026-05-05 17:24 41.18142 11.05390 30260 ft 398 kts 250°
2026-05-05 17:24 41.17177 11.01931 30563 ft 399 kts 250°
2026-05-05 17:25 41.16211 10.98472 30844 ft 400 kts 250°
2026-05-05 17:25 41.15570 10.96176 30956 ft 400 kts 250°
2026-05-05 17:25 41.14311 10.91670 31007 ft 383 kts 250°
2026-05-05 17:26 41.12491 10.85151 31000 ft 374 kts 250°
2026-05-05 17:26 41.10684 10.78703 31002 ft 373 kts 250°
2026-05-05 17:27 41.08863 10.72281 31005 ft 372 kts 250°
2026-05-05 17:27 41.07051 10.65853 30999 ft 372 kts 250°
2026-05-05 17:28 41.05242 10.59435 30997 ft 371 kts 250°
2026-05-05 17:28 41.03426 10.53054 31011 ft 370 kts 250°
2026-05-05 17:29 41.01608 10.46685 31008 ft 369 kts 250°
2026-05-05 17:29 40.99773 10.40351 30999 ft 368 kts 246°
2026-05-05 17:30 40.96812 10.34819 30993 ft 374 kts 227°
2026-05-05 17:30 40.92833 10.30355 30986 ft 375 kts 224°
2026-05-05 17:31 40.88830 10.25917 30968 ft 375 kts 224°
2026-05-05 17:31 40.84827 10.21486 30969 ft 376 kts 224°
2026-05-05 17:32 40.80815 10.17061 30989 ft 375 kts 224°
2026-05-05 17:32 40.76812 10.12639 30987 ft 375 kts 224°
2026-05-05 17:33 40.72838 10.08264 30991 ft 375 kts 224°
2026-05-05 17:33 40.68833 10.03868 30969 ft 374 kts 224°
2026-05-05 17:34 40.64828 9.99479 30967 ft 375 kts 224°
2026-05-05 17:34 40.60826 9.95086 30967 ft 375 kts 224°
2026-05-05 17:35 40.56823 9.90698 30968 ft 375 kts 224°
2026-05-05 17:35 40.52804 9.86305 29800 ft 378 kts 224°
2026-05-05 17:35 40.50783 9.84102 28833 ft 371 kts 223°
2026-05-05 17:36 40.48866 9.82023 28710 ft 344 kts 223°
2026-05-05 17:36 40.47065 9.80075 28444 ft 335 kts 223°
2026-05-05 17:36 40.45263 9.78116 28025 ft 338 kts 223°
2026-05-05 17:36 40.43456 9.76145 27579 ft 337 kts 223°
2026-05-05 17:37 40.41665 9.74191 27146 ft 334 kts 223°
2026-05-05 17:37 40.40477 9.72898 26873 ft 333 kts 223°
2026-05-05 17:37 40.38100 9.70315 26318 ft 331 kts 223°
2026-05-05 17:37 40.36329 9.68394 25923 ft 329 kts 223°
2026-05-05 17:38 40.34569 9.66487 25528 ft 328 kts 223°
2026-05-05 17:38 40.32815 9.64587 25133 ft 326 kts 223°
2026-05-05 17:38 40.31073 9.62699 24748 ft 325 kts 223°
2026-05-05 17:38 40.29335 9.60810 24367 ft 324 kts 223°
2026-05-05 17:39 40.27623 9.58951 23976 ft 323 kts 223°
2026-05-05 17:39 40.25898 9.57086 23583 ft 321 kts 223°
2026-05-05 17:39 40.24175 9.55231 23143 ft 320 kts 223°
2026-05-05 17:39 40.22461 9.53390 22743 ft 318 kts 223°
2026-05-05 17:40 40.20754 9.51554 22339 ft 317 kts 223°
2026-05-05 17:40 40.19050 9.49717 21947 ft 318 kts 222°
2026-05-05 17:40 40.17351 9.47885 21532 ft 315 kts 222°
2026-05-05 17:40 40.15661 9.46063 21150 ft 314 kts 222°
2026-05-05 17:41 40.13985 9.44258 20729 ft 312 kts 222°
2026-05-05 17:41 40.12318 9.42464 20321 ft 310 kts 221°
2026-05-05 17:41 40.10657 9.40676 19914 ft 308 kts 221°
2026-05-05 17:41 40.09005 9.38900 19496 ft 307 kts 221°
2026-05-05 17:42 40.07353 9.37129 19107 ft 306 kts 221°
2026-05-05 17:42 40.05704 9.35366 18703 ft 306 kts 221°
2026-05-05 17:42 40.04059 9.33607 18296 ft 306 kts 221°
2026-05-05 17:42 40.02416 9.31855 17870 ft 305 kts 221°
2026-05-05 17:43 40.00776 9.30104 17473 ft 304 kts 221°
2026-05-05 17:43 39.99146 9.28363 17075 ft 303 kts 221°
2026-05-05 17:43 39.97519 9.26626 16689 ft 302 kts 221°
2026-05-05 17:43 39.95899 9.24897 16302 ft 300 kts 220°
2026-05-05 17:44 39.94289 9.23178 15922 ft 299 kts 221°
2026-05-05 17:44 39.92683 9.21464 15537 ft 299 kts 220°
2026-05-05 17:44 39.91098 9.19774 15160 ft 298 kts 220°
2026-05-05 17:44 39.89492 9.18064 14771 ft 298 kts 220°
2026-05-05 17:45 39.87895 9.16362 14392 ft 296 kts 221°
2026-05-05 17:45 39.86211 9.14763 13974 ft 298 kts 212°
2026-05-05 17:45 39.84320 9.13698 13515 ft 302 kts 199°
2026-05-05 17:45 39.82278 9.13007 13068 ft 303 kts 197°
2026-05-05 17:46 39.80238 9.12325 12630 ft 303 kts 197°
2026-05-05 17:46 39.78198 9.11643 12191 ft 302 kts 197°
2026-05-05 17:46 39.76164 9.10961 11744 ft 302 kts 197°
2026-05-05 17:46 39.74132 9.10276 11302 ft 301 kts 197°
2026-05-05 17:47 39.72110 9.09592 10854 ft 300 kts 197°
2026-05-05 17:47 39.70089 9.08910 10415 ft 300 kts 197°
2026-05-05 17:47 39.68726 9.08453 10195 ft 297 kts 197°
2026-05-05 17:47 39.66791 9.07807 10035 ft 283 kts 196°
2026-05-05 17:48 39.64918 9.07221 9774 ft 273 kts 191°
2026-05-05 17:48 39.62978 9.07089 9923 ft 281 kts 182°
2026-05-05 17:48 39.61045 9.07114 9201 ft 280 kts 181°
2026-05-05 17:48 39.59112 9.07163 8548 ft 276 kts 181°
2026-05-05 17:49 39.57208 9.07218 7894 ft 272 kts 181°
2026-05-05 17:49 39.55351 9.07272 7549 ft 256 kts 181°
2026-05-05 17:49 39.53671 9.07098 7487 ft 229 kts 196°
2026-05-05 17:49 39.52206 9.06365 7274 ft 223 kts 212°
2026-05-05 17:50 39.50951 9.05221 6944 ft 220 kts 217°
2026-05-05 17:50 39.49717 9.04045 6625 ft 221 kts 217°
2026-05-05 17:50 39.48474 9.02870 6278 ft 222 kts 217°
2026-05-05 17:50 39.47226 9.01694 5929 ft 221 kts 217°
2026-05-05 17:51 39.45983 9.00526 5597 ft 221 kts 217°
2026-05-05 17:51 39.44737 8.99354 5260 ft 221 kts 217°
2026-05-05 17:51 39.43496 8.98189 4928 ft 220 kts 217°
2026-05-05 17:51 39.42255 8.97026 4591 ft 220 kts 217°
2026-05-05 17:52 39.41019 8.95864 4249 ft 219 kts 217°
2026-05-05 17:52 39.39785 8.94704 3921 ft 219 kts 216°
2026-05-05 17:52 39.38552 8.93547 3584 ft 218 kts 216°
2026-05-05 17:52 39.37280 8.92634 3244 ft 209 kts 191°
2026-05-05 17:53 39.35909 8.92948 2923 ft 203 kts 148°
2026-05-05 17:53 39.34829 8.94092 2617 ft 199 kts 140°
2026-05-05 17:53 39.33809 8.95284 2300 ft 196 kts 139°
2026-05-05 17:53 39.32803 8.96471 2031 ft 195 kts 138°
2026-05-05 17:54 39.31809 8.97643 1708 ft 192 kts 139°
2026-05-05 17:54 39.30823 8.98799 1408 ft 190 kts 139°
2026-05-05 17:54 39.29851 8.99936 1127 ft 188 kts 139°
2026-05-05 17:54 39.28882 9.01066 879 ft 188 kts 138°
2026-05-05 17:55 39.27916 9.02193 597 ft 186 kts 139°
2026-05-05 17:55 39.26981 9.03282 337 ft 172 kts 138°
2026-05-05 17:55 39.26150 9.04274 59 ft 154 kts 140°
2026-05-05 17:55 39.25413 9.05124 15 ft 124 kts 140°
2026-05-05 17:56 39.24911 9.05702 16 ft 52 kts 138°
2026-05-05 17:56 39.24718 9.05924 15 ft 33 kts 135°
2026-05-05 17:56 39.24712 9.06099 15 ft 20 kts 52°
2026-05-05 17:56 39.24807 9.06098 15 ft 14 kts 321°
2026-05-05 17:57 39.24875 9.06014 15 ft 13 kts 318°
2026-05-05 17:57 39.24940 9.05942 15 ft 12 kts 319°
2026-05-05 17:57 39.24998 9.05877 15 ft 11 kts 318°
2026-05-05 17:57 39.25051 9.05813 15 ft 10 kts 317°
2026-05-05 17:58 39.25108 9.05778 15 ft 9 kts
2026-05-05 17:58 39.25147 9.05828 15 ft 8 kts 59°
2026-05-05 17:58 39.25190 9.05835 15 ft 6 kts 333°
2026-05-05 17:58 39.25223 9.05800 15 ft 6 kts 317°
2026-05-05 17:59 39.25266 9.05750 15 ft 14 kts 318°
2026-05-05 17:59 39.25345 9.05708 15 ft 12 kts 26°
2026-05-05 17:59 39.25400 9.05785 15 ft 11 kts 53°
2026-05-05 17:59 39.25405 9.05843 15 ft 6 kts 136°
2026-05-05 18:00 39.25377 9.05868 15 ft 2 kts 141°
2026-05-05 18:00 39.25367 9.05880 16 ft 2 kts 137°
2026-05-05 18:00 39.25361 9.05887 17 ft 1 kts 138°